Other Public Products
Issued by NWS Grand Forks, ND

Home | Current Version | Previous Version | Graphics & Text | Print | Product List | Glossary On
Versions: 1 2 3 4 5 6 7 8 9 10 11 12 13 14 15 16 17 18 19 20 21 22 23 24 25 26 27 28 29 30 31 32 33 34 35 36 37 38 39 40 41 42 43 44 45 46 47 48 49 50
000
FPUS83 KFGF 281931
OPUFGF
PRAIRIE TO PINES WEATHER ROUNDUP
NATIONAL WEATHER SERVICE EASTERN NORTH DAKOTA/GRAND FORKS ND
100 PM CST SAT FEB 28 2015

 **SATELLITE DATA USED TO AUGMENT SKY COVER AT AUTOMATED STATIONS**
 *****  WEATHER ACROSS EASTERN NORTH DAKOTA  *****

CITY           SKY/WX    TMP DP  RH WIND       PRES   REMARKS
GRAND FORKS    NOT AVBL
GRAND FORKS AF NOT AVBL
GRAND CITY NWS   N/A     21 N/A N/A S24         N/A  WCI   4
BUXTON         NOT AVBL
DEVILS LAKE    PTSUNNY   18  10  73 W13       30.07F WCI   4
FARGO          NOT AVBL
WAHPETON ARPT  MOCLDY    25  12  58 S23       30.22F WCI  10
$$

 *****  WEATHER ACROSS CENTRAL AND WESTERN NORTH DAKOTA  *****

CITY           SKY/WX    TMP DP  RH WIND       PRES   REMARKS
JAMESTOWN      NOT AVBL
BISMARCK       NOT AVBL
MINOT          NOT AVBL
MINOT AFB      MOSUNNY    7   0  73 NW21      30.12F WCI -13
GARRISON         N/A     10   2  69 NW18      30.13S WCI  -8
WILLISTON      NOT AVBL
DICKINSON      PTSUNNY   19   3  49 NW22      30.08F WCI   2
HETTINGER      NOT AVBL
$$

 *****  OTHER OBSERVATIONS NORTHEAST NORTH DAKOTA  *****

CITY           SKY/WX    TMP DP  RH WIND       PRES   REMARKS
WALHALLA         N/A     19   9  63 W7        30.09F WCI  10
LANGDON        NOT AVBL
CAVALIER       MOCLDY    18  10  73 S13       30.10F WCI   4
GRAFTON        NOT AVBL
CANDO          CLOUDY    16   7  67 NW9       30.06F WCI   4
FORT TOTTEN    NOT AVBL
ROLLA          FAIR      14   7  73 N10       30.04F WCI   1
RUGBY          FAIR       9   3  78 NW16      30.09S WCI  -9
 ***** THE ABOVE OBSERVATIONS ARE NON NWS ARE NOT QUALITY
        CONTROLLED AND MAY MIS-REPORT RAIN FOR SNOW...
$$

 *****  OTHER OBSERVATIONS SOUTHEAST NORTH DAKOTA *****

CITY           SKY/WX    TMP DP  RH WIND       PRES   REMARKS
COOPERSTOWN    NOT AVBL
VALLEY CITY    FLURRIES  19  12  73 SW17      30.10F WCI   4
OAKES            N/A     23  14  68 S23       30.13F WCI   7
GWINNER        PTCLDY    27  14  59 SW24G32   30.16F WCI  12
SHEYENNE NWR     N/A     26  12  54 S16       29.95  WCI  14
BUFFALO        NOT AVBL
WYNDMERE         N/A     25  12  58 S16         N/A  WCI  12
 ***** THE ABOVE OBSERVATIONS ARE NON NWS ARE NOT QUALITY
       CONTROLLED AND MAY MIS-REPORT RAIN FOR SNOW...
$$

  *****  WEATHER ACROSS NORTHERN MINNESOTA  *****

CITY           SKY/WX    TMP DP  RH WIND       PRES   REMARKS
FLAG ISLAND    PTSUNNY   14   5  67 S10       30.13F WCI   1
WARROAD        PTSUNNY   21   9  58 S7        30.14F WCI  13
ROSEAU         PTSUNNY   19   9  63 S15       30.13F WCI   5
HALLOCK        MOSUNNY   18  10  73 S22       30.12F WCI   0
THF RVR FALLS  CLOUDY    21  10  63 S17       30.14F WCI   7
HALSTAD          N/A     25  10  54 S22         N/A  WCI  10
FOSSTON        MOSUNNY   21  10  63 S22G29    30.16F WCI   5
BAUDETTE       NOT AVBL
WASKISH        MOSUNNY   27   5  39 S10G20    30.18F WCI  17
CROOKSTON      SUNNY     21  16  79 S23       30.17F WCI   5
$$
  *****  WEATHER ACROSS CENTRAL AND WEST MINNESOTA  *****

CITY           SKY/WX    TMP DP  RH WIND       PRES   REMARKS
BEMIDJI        PTSUNNY   23   3  43 S14G23    30.18F WCI  10
PARK RAPIDS    NOT AVBL
WADENA         MOSUNNY   19   7  58 S18       30.24F WCI   4
DETROIT LAKES  SUNNY     25  12  58 S15G24    30.19F WCI  12
MOORHEAD       PTSUNNY   27  14  59 S18G28    30.20F WCI  13
FERGUS FALLS   SUNNY     23  10  58 S22G31    30.26F WCI   8
ELBOW LAKE     FAIR      21  12  67 S24       30.25F WCI   4
MORRIS MN      MOSUNNY   25  12  58 S22       30.26F WCI  10
STAPLES        SUNNY     21   3  45 S21G26    30.27F WCI   6
WHEATON        SUNNY     19   9  63 S20G26    30.26F WCI   4
$$
  *****  WEATHER ELSEWHERE ACROSS MINNESOTA  *****

CITY           SKY/WX    TMP DP  RH WIND       PRES   REMARKS
DULUTH         NOT AVBL
INTRNTL FALLS  NOT AVBL
ELY            PTSUNNY   19   0  42 SW15G21   30.28F WCI   5
CLOQUET        MOSUNNY   19   0  42 S14G20    30.33F WCI   6
BRAINERD       NOT AVBL
HIBBING        NOT AVBL
ALEXANDRIA     NOT AVBL
SAINT CLOUD    NOT AVBL
MINNEAPOLIS    NOT AVBL
$$

  *****  WEATHER ACROSS SOUTH DAKOTA  *****

CITY           SKY/WX    TMP DP  RH WIND       PRES   REMARKS
SIOUX FALLS    NOT AVBL
BROOKINGS      NOT AVBL
WATERTOWN      NOT AVBL
HURON          NOT AVBL
SISSETON       NOT AVBL
ABERDEEN       NOT AVBL
MITCHELL       NOT AVBL
PIERRE         NOT AVBL
MOBRIDGE       NOT AVBL
RAPID CITY     NOT AVBL
$$

  *****  SOME WEATHER IN NEARBY STATES *****

CITY           SKY/WX    TMP DP  RH WIND       PRES   REMARKS
GLASGOW MT     MOSUNNY   18   3  52 W13       30.18F WCI   5
GREAT FALLS MT NOT AVBL
CHEYENNE WY    CLOUDY    19  10  68 NE9       29.93R WCI   8
SCOTTSBLUFF NE NOT AVBL
OMAHA NE       FLURRIES  21  13  71 SE12      30.42F WCI   9
DES MOINES IA  NOT AVBL
DAVENPORT IA   NOT AVBL
CHICAGO IL     NOT AVBL
EAU CLAIRE WI  NOT AVBL
LA CROSSE WI   NOT AVBL
$$

  *****  SOME NATIONAL WEATHER *****

CITY           SKY/WX    TMP DP  RH WIND       PRES   REMARKS
LA GUARDIA NY  NOT AVBL
RALEIGH NC     NOT AVBL
ATLANTA GA     NOT AVBL
NEW ORLEANS LA NOT AVBL
OKLAHOMA CITY  NOT AVBL
ALBUQUERQUE NM PTSUNNY   31  23  72 N7        29.94F WCI  24
SALT LAKE CITY NOT AVBL
LOS ANGELES CA NOT AVBL
BOISE ID       NOT AVBL
SEATTLE WA     NOT AVBL
$$

*** WEATHER ACROSS MANITOBA...SASKATCHEWAN AND ONTARIO ***
                ***ONTARIO***

CITY           SKY/WX    TMP DP  RH WIND       PRES   REMARKS
GERALDTON      CLOUDY    21  -4  33 SW18G28   30.25F WCI   6
THUNDER BAY    CLOUDY    23   9  54 SE9       30.34F WCI  13
SIOUX LOOKOUT  PTSUNNY   19   0  42 S13       30.14F WCI   7
TORONTO        MOSUNNY   23   7  50 SW9       30.70F WCI  13
BIG TROUT LK   CLOUDY    14   5  67 W15G21    29.99F WCI  -1
PICKLE LAKE    PTSUNNY   18   0  45 SW10G17   30.09F WCI   6
DRYDEN         MOSUNNY   21   1  42 S12G18    30.15F WCI   9
KENORA         CLOUDY    16   1  53 S15G21    30.12F WCI   1
$$
                *** MANITOBA***

CITY           SKY/WX    TMP DP  RH WIND       PRES   REMARKS
BRANDON        MOSUNNY   10   1  67 W12       30.09S WCI  -4
DAUPHIN        SUNNY     10   1  67 W17       30.08F WCI  -7
ISLAND LAKE    MOSUNNY   19   5  53 W15       29.98F WCI   5
PILOT MOUND      N/A     14   3  62 W9          N/A  WCI   2
THE PAS        PTSUNNY   18   1  49 W16       29.99F WCI   3
THOMPSON       PTSUNNY   19   3  49 W14G20    29.84F WCI   6
WINNIPEG       PTSUNNY   12   3  67 S13       30.13F WCI  -3
LYNN LAKE      PTSUNNY   12   5  73 NW12G17   29.83R WCI  -2
CHURCHILL      PTSUNNY    5   0  78 NW23      29.76R WCI -17
GILLAM         PTSUNNY   19   7  58 SW18G25   29.80F WCI   4
$$
                ***SASKATCHEWAN***

CITY           SKY/WX    TMP DP  RH WIND       PRES   REMARKS
ESTEVAN        FLURRIES   5   0  78 NW18      30.14S WCI -15
KINDERSLEY     FLURRIES  14   7  73 W14       30.11S WCI  -1
LLOYDMINSTER   CLOUDY    14  10  85 W14       30.06S WCI  -1
PRINCE ALBERT  FLURRIES  12   3  67 SW9       30.02F WCI   0
REGINA         MOSUNNY    7   3  85 W16       30.14F WCI -11


USA.gov is the U.S. government's official web portal to all federal, state and local government web resources and services.